Regional Weather Roundup
Issued by NWS Northern Indiana

Home | Current Version | Previous Version | Graphics & Text | Print | Product List | Glossary On
Versions: 1 2 3 4 5 6 7 8 9 10 11 12 13 14 15 16 17 18 19 20 21 22 23 24 25 26 27 28 29 30 31 32 33 34 35 36 37 38 39 40 41 42 43 44 45 46 47 48 49 50
858
ASUS43 KIWX 251901
RWRIWX

KIWX WEATHER ROUNDUP
NATIONAL WEATHER SERVICE NORTHERN INDIANA
300 PM EDT FRI MAY 25 2018

NOTE: "FAIR" INDICATES FEW OR NO CLOUDS BELOW 12,000 FEET WITH NO
SIGNIFICANT WEATHER AND/OR OBSTRUCTIONS TO VISIBILITY.

* THESE STATIONS ARE NOT UNDER NWS QUALITY CONTROL. THEY ALSO MAY NOT
  REPORT WEATHER SUCH AS PRECIPITATION OR FOG.

INZ001>027-252000-
NORTHERN INDIANA

CITY           SKY/WX    TMP DP  RH WIND       PRES   REMARKS
GARY*          MOSUNNY   90  50  25 S8        29.88F
KNOX*          FAIR      86  55  35 CALM      29.89F
SOUTH BEND     FAIR      85  58  39 VRB6      29.91F
GOSHEN         FAIR      84  57  39 MISG      29.91F
WARSAW*        FAIR      82  52  34 CALM      29.92F
AUBURN*        FAIR      84  52  32 SW5       29.95F
FORT WAYNE     FAIR      86  52  30 SW9       29.93F
PERU/GRISSOM   FAIR      87  52  30 W6        29.92F

$$
INZ028>050-252000-
CENTRAL INDIANA

CITY           SKY/WX    TMP DP  RH WIND       PRES   REMARKS
LAFAYETTE      FAIR      86  54  33 CALM      29.89F
KOKOMO*        FAIR      87  52  29 SW6       29.93F
MUNCIE*        FAIR      88  52  29 S8        29.94F
INDIANAPOLIS   FAIR      86  55  34 VRB6      29.93F

$$
MIZ043>046-050>051-056>058-064>065-071>073-077>080-252000-
SOUTHWEST LOWER MICHIGAN

CITY           SKY/WX    TMP DP  RH WIND       PRES   REMARKS
BATTLE CREEK   FAIR      85  58  39 SW10      29.91F
BENTON HARBOR  FAIR      84  60  44 SW12      29.90F
COLDWATER*     FAIR      84  47  27 W5        29.92F
HILLSDALE*     FAIR      84  52  32 S8        29.93F
HOLLAND        FAIR      82  60  47 W10       29.90F
GRAND RAPIDS   FAIR      86  61  42 W13       29.89F
KALAMAZOO      FAIR      87  58  37 VRB7      29.90F
STURGIS*       FAIR      83  59  43 S6        29.91F
THREE RIVERS*  FAIR      85  57  37 NW7       29.91F

$$
OHZ001>008-015>018-024>025-252000-
NORTHWEST OHIO

CITY           SKY/WX    TMP DP  RH WIND       PRES   REMARKS
DEFIANCE       FAIR      85  53  33 VRB7      29.93F
FINDLAY        FAIR      86  52  30 SW8G16    29.93F
TOLEDO EXPRESS FAIR      87  50  27 VRB7      29.91F
TOLEDO METCALF FAIR      86  48  26 SW12      29.93F
LIMA           FAIR      84  54  35 SW8       29.95F

$$
AND FOR LAKE MICHIGAN COASTAL AND OPEN LAKE BUOY OBSERVATIONS

STATION/POSITION TEMP    WIND        PRES    VSBY  WAVE
                 AIR SEA DIR/SP/G                  HT/PER
                 (F)     (DEG/KT/KT) (MB)    (MI)  (FT/S)
CALUMET HARBOR    85     200/  7/ 11 1011.3F
MICHIGAN CITY     82     330/  4/  4   N/A
BURNS HARBOR      74      10/  5/  6 1012.9F
SAINT JOSEPH      74     200/  6/  7 1014.2
SOUTH LAKE BUOY   50 39  170/  6/  8 1012.3F         0
4 MI NW BRIDGMAN  72 63  120/  2/  2 1012.3F         0
MICHIGAN CITY     75 66   70/  4/  4   N/A           0

$$
&&




USA.gov is the U.S. government's official web portal to all federal, state and local government web resources and services.